Powrót do katalogu

GAOFEN 14

AktywnyNaukaSSO
NORAD 47231·PAYLOAD·🇨🇳 China

Wystrzelony Dec 6, 2020 z Xichang Satellite Launch Center

Loading…

Następne Przeloty (najbliższe 24 godziny)

TLE

ŚwieżeSource: Space-Track

Epoka: Sep 14, 2026, 13:02 UTC

1 47231U 20092A   26257.54373454  .00005040  00000-0  20033-3 0  9997
2 47231  97.4644 327.6477 0005231 182.9419 177.1789 15.25747337321453

Śledź GAOFEN 14 w czasie rzeczywistym z AllMySat

Download on the App Store